This is the latest recevied weather packets stored in our database for station/object I2HLY-4. If no packets are shown the sender has not sent any weather packets the latest 10 day(s).
| Time | Temp. | Humidity | Pressure | Rain* | Wind** | Luminosity | Snow |
|---|---|---|---|---|---|---|---|
| 1777608144 | 5.56° C | 79% | 1026.6 hPa | 0 mm | - | - | - |
| 1777607243 | 5.56° C | 78% | 1026.5 hPa | 0 mm | - | - | - |
| 1777606344 | 5.56° C | 78% | 1026.5 hPa | 0 mm | - | - | - |
| 1777605449 | 5.56° C | 78% | 1026.5 hPa | 0 mm | - | - | - |
| 1777604531 | 5.56° C | 78% | 1026.4 hPa | 0 mm | - | - | - |
| 1777603636 | 5.56° C | 80% | 1026.5 hPa | 0 mm | - | - | - |
| 1777602734 | 5.56° C | 80% | 1026.6 hPa | 0 mm | - | - | - |
| 1777601833 | 5.56° C | 79% | 1026.7 hPa | 0 mm | - | - | - |
| 1777600937 | 5.56° C | 80% | 1026.7 hPa | 0 mm | - | - | - |
| 1777600036 | 5.56° C | 81% | 1026.7 hPa | 0 mm | - | - | - |
| 1777599139 | 5.56° C | 80% | 1026.6 hPa | 0 mm | - | - | - |
| 1777598244 | 5.56° C | 82% | 1026.6 hPa | 0 mm | - | - | - |
| 1777597344 | 5.56° C | 82% | 1026.6 hPa | 0 mm | - | - | - |
| 1777596449 | 6.11° C | 83% | 1026.6 hPa | 0 mm | - | - | - |
| 1777595543 | 6.11° C | 84% | 1026.7 hPa | 0 mm | - | - | - |
| 1777594643 | 6.67° C | 84% | 1026.7 hPa | 0 mm | - | - | - |
| 1777592834 | 6.67° C | 80% | 1026.6 hPa | 0 mm | - | - | - |
| 1777591934 | 6.67° C | 79% | 1026.6 hPa | 0 mm | - | - | - |
| 1777591034 | 6.67° C | 81% | 1026.6 hPa | 0 mm | - | - | - |
| 1777590141 | 6.67° C | 81% | 1026.6 hPa | 0 mm | - | - | - |
| 1777589241 | 7.22° C | 82% | 1026.6 hPa | 0 mm | - | - | - |
| 1777588339 | 7.22° C | 83% | 1026.5 hPa | 0 mm | - | - | - |
| 1777587445 | 7.22° C | 81% | 1026.4 hPa | 0 mm | - | - | - |
| 1777586543 | 7.22° C | 85% | 1026.2 hPa | 0 mm | - | - | - |
| 1777585649 | 7.78° C | 87% | 1026.1 hPa | 0 mm | - | - | - |
* Rain latest hour (hover to see other rain measurements)
** Current wind speed in m/s (hover to see current wind gust speed)